Voltar ao catálogo

STARLINK-4474

AtivoComunicaçõesVLEO
NORAD 53547·PAYLOAD·🇺🇸 United States

Lançado Aug 19, 2022 de Cape Canaveral Space Force Station

Loading…

Próximas Passagens (próximas 24 horas)

TLE

AtualizadoSource: CelesTrak SupGP

Época: Sep 14, 2026, 14:45 UTC

1 53547C 22101W   26257.61506944  .00006927  00000+0  20470-3 0  2573
2 53547  53.1577 281.1951 0001338  77.6350  34.4447 15.34381331    13

Acompanhe STARLINK-4474 em tempo real com AllMySat

Download on the App Store